,,,PA_Meas_PMT16A,,PR_Meas_QMR101_102,,RH_Meas_QMH101,,SR_Meas_QMS101,,TA_Meas_QMH101,,GenWind,,GenWind,
date,time,status,PA,status,PR,status,RH,status,SR,status,TA,status,DirAvg,status,SpdAvg,
2011-10-08, 00:00:04,VALID,1002.19,VALID,0,VALID,89.8388,VALID,0,VALID,24.3062,VALID,263,VALID,1.58594,
2011-10-08, 00:01:04,VALID,1002.18,VALID,0,VALID,89.7243,VALID,0,VALID,24.2653,VALID,250,VALID,2.66836,
2011-10-08, 00:02:04,VALID,1002.11,VALID,0,VALID,89.5717,VALID,0,VALID,24.2671,VALID,302,VALID,1.90625,
2011-10-08, 00:03:04,VALID,1002.13,VALID,0,VALID,89.5565,VALID,0,VALID,24.2476,VALID,241,VALID,0.870703,
2011-10-08, 00:04:04,VALID,1002.07,VALID,0,VALID,89.6099,VALID,0,VALID,24.2281,VALID,246,VALID,1.85547,
2011-10-08, 00:05:04,VALID,1002.06,VALID,0,VALID,89.6557,VALID,0,VALID,24.2086,VALID,242,VALID,2.03594,
2011-10-08, 00:06:04,VALID,1002.01,VALID,0,VALID,89.4878,VALID,0,VALID,24.1677,VALID,179,VALID,2.76289,
2011-10-08, 00:07:04,VALID,1002,VALID,0,VALID,89.4802,VALID,0,VALID,24.1677,VALID,192,VALID,1.45156,
2011-10-08, 00:08:04,VALID,1001.98,VALID,0,VALID,89.6251,VALID,0,VALID,24.1482,VALID,301,VALID,0.941797,
2011-10-08, 00:09:04,VALID,1001.96,VALID,0,VALID,89.7549,VALID,0,VALID,24.1305,VALID,200,VALID,1.49414,
2011-10-08, 00:10:04,VALID,1001.92,VALID,0,VALID,89.4344,VALID,0,VALID,24.1305,VALID,282,VALID,1.25273,
2011-10-08, 00:11:04,VALID,1001.92,VALID,0,VALID,89.114,VALID,0,VALID,24.0915,VALID,231,VALID,3.5832,
2011-10-08, 00:12:04,VALID,1001.91,VALID,0,VALID,88.8469,VALID,0,VALID,24.0897,VALID,249,VALID,1.71484,
2011-10-08, 00:13:04,VALID,1001.86,VALID,0,VALID,88.9461,VALID,0,VALID,24.0525,VALID,278,VALID,0.449219,
2011-10-08, 00:14:04,VALID,1001.91,VALID,0,VALID,88.9232,VALID,0,VALID,24.0329,VALID,276,VALID,1.24961,
2011-10-08, 00:15:04,VALID,1001.92,VALID,0,VALID,88.8393,VALID,0,VALID,23.9921,VALID,274,VALID,1.66094,
2011-10-08, 00:16:04,VALID,1001.88,VALID,0,VALID,88.8393,VALID,0,VALID,24.0134,VALID,310,VALID,0.776563,
2011-10-08, 00:17:04,VALID,1001.88,VALID,0,VALID,88.8698,VALID,0,VALID,23.9939,VALID,281,VALID,0.780859,
2011-10-08, 00:18:04,VALID,1001.87,VALID,0,VALID,89.0682,VALID,0,VALID,23.9744,VALID,321,VALID,0.657031,
2011-10-08, 00:19:04,VALID,1001.85,VALID,0,VALID,89.1216,VALID,0,VALID,23.9336,VALID,317,VALID,1.16016,
2011-10-08, 00:20:04,VALID,1001.83,VALID,0,VALID,89.0682,VALID,0,VALID,23.9354,VALID,306,VALID,2.09609,
2011-10-08, 00:21:04,VALID,1001.79,VALID,0,VALID,88.9766,VALID,0,VALID,23.9159,VALID,314,VALID,1.20078,
2011-10-08, 00:22:04,VALID,1001.74,VALID,0,VALID,89.0529,VALID,0,VALID,23.8945,VALID,300,VALID,0.782422,
2011-10-08, 00:23:04,VALID,1001.74,VALID,0,VALID,89.2437,VALID,0,VALID,23.8963,VALID,300,VALID,0.353906,
2011-10-08, 00:24:04,VALID,1001.67,VALID,0,VALID,89.3657,VALID,0,VALID,23.8573,VALID,310,VALID,0.545313,
2011-10-08, 00:25:04,VALID,1001.63,VALID,0,VALID,89.3276,VALID,0,VALID,23.8573,VALID,12,VALID,0.608203,
2011-10-08, 00:26:04,VALID,1001.64,VALID,0,VALID,89.4115,VALID,0,VALID,23.8165,VALID,351,VALID,0.423047,
2011-10-08, 00:27:04,VALID,1001.57,VALID,0,VALID,89.4802,VALID,0,VALID,23.8183,VALID,342,VALID,0.556641,
2011-10-08, 00:28:04,VALID,1001.55,VALID,0,VALID,89.4802,VALID,0,VALID,23.8183,VALID,228,VALID,0.396094,
2011-10-08, 00:29:04,VALID,1001.55,VALID,0,VALID,89.6328,VALID,0,VALID,23.7793,VALID,228,VALID,0.535937,
2011-10-08, 00:30:04,VALID,1001.56,VALID,0,VALID,89.7625,VALID,0,VALID,23.7579,VALID,183,VALID,0.44375,
2011-10-08, 00:31:04,VALID,1001.53,VALID,0,VALID,89.793,VALID,0,VALID,23.7597,VALID,187,VALID,0.215234,
2011-10-08, 00:32:04,VALID,1001.54,VALID,0,VALID,89.8922,VALID,0,VALID,23.7384,VALID,238,VALID,0.242969,
2011-10-08, 00:33:04,VALID,1001.48,VALID,0,VALID,89.9227,VALID,0,VALID,23.7189,VALID,167,VALID,0.714844,
2011-10-08, 00:34:04,VALID,1001.48,VALID,0,VALID,89.9914,VALID,0,VALID,23.7207,VALID,67,VALID,0.855078,
2011-10-08, 00:35:04,VALID,1001.47,VALID,0,VALID,90.06,VALID,0,VALID,23.7012,VALID,67,VALID,0.624219,
2011-10-08, 00:36:04,VALID,1001.47,VALID,0,VALID,90.0677,VALID,0,VALID,23.7012,VALID,67,VALID,0.555469,
2011-10-08, 00:37:04,VALID,1001.41,VALID,0,VALID,90.1516,VALID,0,VALID,23.7012,VALID,67,VALID,0.378906,
2011-10-08, 00:38:04,VALID,1001.41,VALID,0,VALID,90.1516,VALID,0,VALID,23.7012,VALID,349,VALID,1.43906,
2011-10-08, 00:39:04,VALID,1001.37,VALID,0,VALID,90.1668,VALID,0,VALID,23.7012,VALID,303,VALID,1.02031,
2011-10-08, 00:40:04,VALID,1001.3,VALID,0,VALID,90.2584,VALID,0,VALID,23.6817,VALID,247,VALID,0.907031,
2011-10-08, 00:41:04,VALID,1001.25,VALID,0,VALID,90.06,VALID,0,VALID,23.6817,VALID,247,VALID,0.134766,
2011-10-08, 00:42:04,VALID,1001.26,VALID,0,VALID,89.8006,VALID,0,VALID,23.6817,VALID,268,VALID,0.939844,
2011-10-08, 00:43:04,VALID,1001.24,VALID,0,VALID,89.7777,VALID,0,VALID,23.7012,VALID,253,VALID,1.22109,
2011-10-08, 00:44:04,VALID,1001.24,VALID,0,VALID,89.8617,VALID,0,VALID,23.6799,VALID,226,VALID,1.09453,
2011-10-08, 00:45:04,VALID,1001.2,VALID,0,VALID,90.0143,VALID,0,VALID,23.6817,VALID,215,VALID,0.675391,
2011-10-08, 00:46:04,VALID,1001.18,VALID,0,VALID,90.0753,VALID,0,VALID,23.6409,VALID,242,VALID,0.774219,
2011-10-08, 00:47:04,VALID,1001.16,VALID,0,VALID,90.0524,VALID,0,VALID,23.6622,VALID,215,VALID,0.792578,
2011-10-08, 00:48:04,VALID,1001.15,VALID,0,VALID,90.0829,VALID,0,VALID,23.6409,VALID,206,VALID,0.737891,
2011-10-08, 00:49:04,VALID,1001.18,VALID,0,VALID,89.7777,VALID,0,VALID,23.6622,VALID,248,VALID,1.58281,
2011-10-08, 00:50:04,VALID,1001.2,VALID,0,VALID,89.648,VALID,0,VALID,23.6604,VALID,232,VALID,1.03906,
2011-10-08, 00:51:04,VALID,1001.2,VALID,0,VALID,89.6328,VALID,0,VALID,23.6604,VALID,234,VALID,1.11875,
2011-10-08, 00:52:04,VALID,1001.18,VALID,0,VALID,89.6557,VALID,0,VALID,23.6604,VALID,219,VALID,0.969141,
2011-10-08, 00:53:04,VALID,1001.22,VALID,0,VALID,89.7091,VALID,0,VALID,23.6604,VALID,219,VALID,0.644922,
2011-10-08, 00:54:04,VALID,1001.19,VALID,0,VALID,89.7014,VALID,0,VALID,23.6622,VALID,219,VALID,0.591797,
2011-10-08, 00:55:04,VALID,1001.19,VALID,0,VALID,89.7625,VALID,0,VALID,23.6409,VALID,209,VALID,0.996484,
2011-10-08, 00:56:04,VALID,1001.17,VALID,0,VALID,89.7701,VALID,0,VALID,23.6622,VALID,196,VALID,1.27461,
2011-10-08, 00:57:04,VALID,1001.12,VALID,0,VALID,89.8083,VALID,0,VALID,23.6622,VALID,196,VALID,1.30977,
2011-10-08, 00:58:04,VALID,1001.11,VALID,0,VALID,89.8769,VALID,0,VALID,23.6409,VALID,196,VALID,1.18242,
2011-10-08, 00:59:04,VALID,1001.1,VALID,0,VALID,89.938,VALID,0,VALID,23.6622,VALID,193,VALID,1.42109,
2011-10-08, 01:00:04,VALID,1001.1,VALID,0,VALID,90.0066,VALID,0,VALID,23.6409,VALID,194,VALID,1.54375,
2011-10-08, 01:01:04,VALID,1001.08,VALID,0,VALID,90.06,VALID,0,VALID,23.6622,VALID,182,VALID,1.85078,
2011-10-08, 01:02:04,VALID,1001.02,VALID,0,VALID,89.999,VALID,0,VALID,23.6622,VALID,167,VALID,2.0543,
2011-10-08, 01:03:04,VALID,1001.02,VALID,0,VALID,89.9151,VALID,0,VALID,23.6427,VALID,153,VALID,2.00586,
2011-10-08, 01:04:04,VALID,1000.97,VALID,0,VALID,89.999,VALID,0,VALID,23.6036,VALID,145,VALID,1.97109,
2011-10-08, 01:05:04,VALID,1000.94,VALID,0,VALID,90.0906,VALID,0,VALID,23.5841,VALID,142,VALID,1.78828,
2011-10-08, 01:06:04,VALID,1000.93,VALID,0,VALID,90.2355,VALID,0,VALID,23.5646,VALID,145,VALID,1.99688,
2011-10-08, 01:07:04,VALID,1000.95,VALID,0,VALID,90.3347,VALID,0,VALID,23.5256,VALID,149,VALID,1.72227,
2011-10-08, 01:08:04,VALID,1000.92,VALID,0,VALID,90.4415,VALID,0,VALID,23.5274,VALID,149,VALID,1.32266,
2011-10-08, 01:09:04,VALID,1000.91,VALID,0,VALID,90.5483,VALID,0,VALID,23.4866,VALID,146,VALID,1.57109,
2011-10-08, 01:10:04,VALID,1000.9,VALID,0,VALID,90.6094,VALID,0,VALID,23.4671,VALID,148,VALID,1.87539,
2011-10-08, 01:11:04,VALID,1000.84,VALID,0,VALID,90.6017,VALID,0,VALID,23.4475,VALID,152,VALID,1.05938,
2011-10-08, 01:12:04,VALID,1000.87,VALID,0,VALID,90.6475,VALID,0,VALID,23.428,VALID,140,VALID,1.30078,
2011-10-08, 01:13:04,VALID,1000.85,VALID,0,VALID,90.7314,VALID,0,VALID,23.3677,VALID,137,VALID,1.44531,
2011-10-08, 01:14:04,VALID,1000.83,VALID,0,VALID,90.8688,VALID,0,VALID,23.3695,VALID,136,VALID,1.43906,
2011-10-08, 01:15:04,VALID,1000.81,VALID,0,VALID,90.9222,VALID,0,VALID,23.35,VALID,128,VALID,1.4582,
2011-10-08, 01:16:04,VALID,1000.84,VALID,0,VALID,90.9832,VALID,0,VALID,23.3305,VALID,128,VALID,1.43555,
2011-10-08, 01:17:04,VALID,1000.81,VALID,0,VALID,91.0443,VALID,0,VALID,23.311,VALID,128,VALID,1.29414,
2011-10-08, 01:18:04,VALID,1000.81,VALID,0,VALID,91.1053,VALID,0,VALID,23.2915,VALID,128,VALID,1.22773,
2011-10-08, 01:19:04,VALID,1000.78,VALID,0,VALID,91.2045,VALID,0,VALID,23.2507,VALID,128,VALID,1.48633,
2011-10-08, 01:20:04,VALID,1000.76,VALID,0,VALID,91.2808,VALID,0,VALID,23.2524,VALID,127,VALID,1.68594,
2011-10-08, 01:21:04,VALID,1000.74,VALID,0,VALID,91.4181,VALID,0,VALID,23.2312,VALID,118,VALID,1.76992,
2011-10-08, 01:22:04,VALID,1000.73,VALID,0,VALID,91.5097,VALID,0,VALID,23.2134,VALID,115,VALID,1.41953,
2011-10-08, 01:23:04,VALID,1000.72,VALID,0,VALID,91.586,VALID,0,VALID,23.2134,VALID,111,VALID,1.71133,
2011-10-08, 01:24:04,VALID,1000.73,VALID,0,VALID,91.6165,VALID,0,VALID,23.1939,VALID,111,VALID,1.09141,
2011-10-08, 01:25:04,VALID,1000.73,VALID,0,VALID,91.6317,VALID,0,VALID,23.1939,VALID,111,VALID,1.2293,
2011-10-08, 01:26:04,VALID,1000.71,VALID,0,VALID,91.6623,VALID,0,VALID,23.1549,VALID,111,VALID,1.13047,
2011-10-08, 01:27:04,VALID,1000.69,VALID,0,VALID,91.7767,VALID,0,VALID,23.1549,VALID,111,VALID,0.992188,
2011-10-08, 01:28:04,VALID,1000.68,VALID,0,VALID,91.914,VALID,0,VALID,23.1354,VALID,111,VALID,1.08086,
2011-10-08, 01:29:04,VALID,1000.69,VALID,0,VALID,92.0056,VALID,0,VALID,23.0964,VALID,111,VALID,0.925781,
2011-10-08, 01:30:04,VALID,1000.69,VALID,0,VALID,92.0285,VALID,0,VALID,23.0573,VALID,111,VALID,0.703125,
2011-10-08, 01:31:04,VALID,1000.71,VALID,0,VALID,92.0743,VALID,0,VALID,23.0183,VALID,111,VALID,0.691797,
2011-10-08, 01:32:04,VALID,1000.7,VALID,0,VALID,92.1048,VALID,0,VALID,22.9988,VALID,111,VALID,0.792188,
2011-10-08, 01:33:04,VALID,1000.68,VALID,0,VALID,92.1582,VALID,0,VALID,22.9793,VALID,111,VALID,0.858594,
2011-10-08, 01:34:04,VALID,1000.63,VALID,0,VALID,92.2116,VALID,0,VALID,22.9598,VALID,111,VALID,1.07656,
2011-10-08, 01:35:04,VALID,1000.62,VALID,0,VALID,92.265,VALID,0,VALID,22.9208,VALID,111,VALID,0.860937,
2011-10-08, 01:36:04,VALID,1000.6,VALID,0,VALID,92.3031,VALID,0,VALID,22.9013,VALID,111,VALID,0.877734,
2011-10-08, 01:37:04,VALID,1000.56,VALID,0,VALID,92.3489,VALID,0,VALID,22.9013,VALID,111,VALID,0.775781,
2011-10-08, 01:38:04,VALID,1000.56,VALID,0,VALID,92.4023,VALID,0,VALID,22.9013,VALID,111,VALID,0.651953,
2011-10-08, 01:39:04,VALID,1000.58,VALID,0,VALID,92.4481,VALID,0,VALID,22.8818,VALID,111,VALID,0.536328,
2011-10-08, 01:40:04,VALID,1000.59,VALID,0,VALID,92.4176,VALID,0,VALID,22.8623,VALID,111,VALID,0.458594,
2011-10-08, 01:41:04,VALID,1000.58,VALID,0,VALID,92.4176,VALID,0,VALID,22.8232,VALID,111,VALID,0.459375,
2011-10-08, 01:42:04,VALID,1000.61,VALID,0,VALID,92.4634,VALID,0,VALID,22.8445,VALID,111,VALID,0.493359,
2011-10-08, 01:43:04,VALID,1000.57,VALID,0,VALID,92.5549,VALID,0,VALID,22.8232,VALID,111,VALID,0.244141,
2011-10-08, 01:44:04,VALID,1000.55,VALID,0,VALID,92.6083,VALID,0,VALID,22.8037,VALID,111,VALID,0.417969,
2011-10-08, 01:45:04,VALID,1000.55,VALID,0,VALID,92.677,VALID,0,VALID,22.8037,VALID,111,VALID,0.476172,
2011-10-08, 01:46:04,VALID,1000.53,VALID,0,VALID,92.7533,VALID,0,VALID,22.825,VALID,111,VALID,0.990625,
2011-10-08, 01:47:04,VALID,1000.49,VALID,0,VALID,92.8448,VALID,0,VALID,22.8427,VALID,110,VALID,1.45039,
2011-10-08, 01:48:04,VALID,1000.46,VALID,0,VALID,92.9135,VALID,0,VALID,22.9013,VALID,110,VALID,1.49297,
2011-10-08, 01:49:04,VALID,1000.47,VALID,0,VALID,92.9059,VALID,0,VALID,22.9208,VALID,110,VALID,1.40625,
2011-10-08, 01:50:04,VALID,1000.46,VALID,0,VALID,92.8983,VALID,0,VALID,22.9403,VALID,110,VALID,1.51797,
2011-10-08, 01:51:04,VALID,1000.46,VALID,0,VALID,92.883,VALID,0,VALID,22.9793,VALID,108,VALID,1.28398,
2011-10-08, 01:52:04,VALID,1000.43,VALID,0,VALID,92.8525,VALID,0,VALID,22.9988,VALID,107,VALID,1.16367,
2011-10-08, 01:53:04,VALID,1000.43,VALID,0,VALID,92.7991,VALID,0,VALID,22.9988,VALID,99,VALID,1.16445,
2011-10-08, 01:54:04,VALID,1000.41,VALID,0,VALID,92.7533,VALID,0,VALID,22.9988,VALID,99,VALID,1.11523,
2011-10-08, 01:55:04,VALID,1000.42,VALID,0,VALID,92.7457,VALID,0,VALID,23.0201,VALID,98,VALID,1.31875,
2011-10-08, 01:56:04,VALID,1000.4,VALID,0,VALID,92.7151,VALID,0,VALID,23.0378,VALID,97,VALID,1.07422,
2011-10-08, 01:57:04,VALID,1000.4,VALID,0,VALID,92.6617,VALID,0,VALID,23.0573,VALID,93,VALID,1.00273,
2011-10-08, 01:58:04,VALID,1000.42,VALID,0,VALID,92.5931,VALID,0,VALID,23.0769,VALID,93,VALID,0.539844,
2011-10-08, 01:59:04,VALID,1000.41,VALID,0,VALID,92.5091,VALID,0,VALID,23.0573,VALID,93,VALID,0.880078,
2011-10-08, 02:00:04,VALID,1000.41,VALID,0,VALID,92.4557,VALID,0,VALID,23.0573,VALID,106,VALID,0.944141,
2011-10-08, 02:01:04,VALID,1000.45,VALID,0,VALID,92.4252,VALID,0,VALID,23.0769,VALID,116,VALID,1.15664,
2011-10-08, 02:02:04,VALID,1000.42,VALID,0,VALID,92.4023,VALID,0,VALID,23.0769,VALID,124,VALID,1.17344,
2011-10-08, 02:03:04,VALID,1000.37,VALID,0,VALID,92.3566,VALID,0,VALID,23.0964,VALID,128,VALID,1.00625,
2011-10-08, 02:04:04,VALID,1000.36,VALID,0,VALID,92.3337,VALID,0,VALID,23.1159,VALID,128,VALID,1.01875,
2011-10-08, 02:05:04,VALID,1000.38,VALID,0,VALID,92.2955,VALID,0,VALID,23.1354,VALID,145,VALID,1.13203,
2011-10-08, 02:06:04,VALID,1000.32,VALID,0,VALID,92.1811,VALID,0,VALID,23.1141,VALID,145,VALID,1.24141,
2011-10-08, 02:07:04,VALID,1000.31,VALID,0,VALID,92.0743,VALID,0,VALID,23.1744,VALID,145,VALID,0.878906,
2011-10-08, 02:08:04,VALID,1000.3,VALID,0,VALID,91.9827,VALID,0,VALID,23.1744,VALID,145,VALID,1.14766,
2011-10-08, 02:09:04,VALID,1000.32,VALID,0,VALID,91.8911,VALID,0,VALID,23.1939,VALID,145,VALID,0.757813,
2011-10-08, 02:10:04,VALID,1000.32,VALID,0,VALID,91.8072,VALID,0,VALID,23.2134,VALID,145,VALID,0.975781,
2011-10-08, 02:11:04,VALID,1000.32,VALID,0,VALID,91.7004,VALID,0,VALID,23.2329,VALID,145,VALID,0.802734,
2011-10-08, 02:12:04,VALID,1000.33,VALID,0,VALID,91.6394,VALID,0,VALID,23.2329,VALID,145,VALID,0.929297,
2011-10-08, 02:13:04,VALID,1000.34,VALID,0,VALID,91.5554,VALID,0,VALID,23.2134,VALID,145,VALID,0.790625,
2011-10-08, 02:14:04,VALID,1000.31,VALID,0,VALID,91.5173,VALID,0,VALID,23.2329,VALID,145,VALID,1.07891,
2011-10-08, 02:15:04,VALID,1000.31,VALID,0,VALID,91.4639,VALID,0,VALID,23.2329,VALID,147,VALID,1.21758,
2011-10-08, 02:16:04,VALID,1000.3,VALID,0,VALID,91.4105,VALID,0,VALID,23.2719,VALID,155,VALID,1.39961,
2011-10-08, 02:17:04,VALID,1000.33,VALID,0,VALID,91.3952,VALID,0,VALID,23.2915,VALID,155,VALID,1.30117,
2011-10-08, 02:18:04,VALID,1000.34,VALID,0,VALID,91.3266,VALID,0,VALID,23.311,VALID,155,VALID,1.27734,
2011-10-08, 02:19:04,VALID,1000.32,VALID,0,VALID,91.2884,VALID,0,VALID,23.3323,VALID,155,VALID,1.47109,
2011-10-08, 02:20:04,VALID,1000.28,VALID,0,VALID,91.2274,VALID,0,VALID,23.3305,VALID,155,VALID,1.30664,
2011-10-08, 02:21:04,VALID,1000.28,VALID,0,VALID,91.1282,VALID,0,VALID,23.3305,VALID,155,VALID,1.03984,
2011-10-08, 02:22:04,VALID,1000.26,VALID,0,VALID,91.0137,VALID,0,VALID,23.3305,VALID,154,VALID,1.05938,
2011-10-08, 02:23:04,VALID,1000.25,VALID,0,VALID,90.9985,VALID,0,VALID,23.311,VALID,136,VALID,1.09805,
2011-10-08, 02:24:04,VALID,1000.24,VALID,0,VALID,90.9985,VALID,0,VALID,23.2915,VALID,136,VALID,1.15977,
2011-10-08, 02:25:04,VALID,1000.26,VALID,0,VALID,91.0519,VALID,0,VALID,23.2524,VALID,136,VALID,0.858984,
2011-10-08, 02:26:04,VALID,1000.26,VALID,0,VALID,91.1282,VALID,0,VALID,23.2524,VALID,136,VALID,0.799609,
2011-10-08, 02:27:04,VALID,1000.28,VALID,0,VALID,91.1892,VALID,0,VALID,23.2329,VALID,136,VALID,0.757422,
2011-10-08, 02:28:04,VALID,1000.28,VALID,0,VALID,91.2426,VALID,0,VALID,23.2329,VALID,136,VALID,0.586719,
2011-10-08, 02:29:04,VALID,1000.28,VALID,0,VALID,91.3189,VALID,0,VALID,23.2134,VALID,136,VALID,0.88125,
2011-10-08, 02:30:04,VALID,1000.23,VALID,0,VALID,91.3647,VALID,0,VALID,23.2134,VALID,136,VALID,0.904297,
2011-10-08, 02:31:04,VALID,1000.18,VALID,0,VALID,91.3723,VALID,0,VALID,23.1939,VALID,136,VALID,0.794531,
2011-10-08, 02:32:04,VALID,1000.18,VALID,0,VALID,91.38,VALID,0,VALID,23.1549,VALID,136,VALID,0.699609,
2011-10-08, 02:33:04,VALID,1000.18,VALID,0,VALID,91.2884,VALID,0,VALID,23.1159,VALID,136,VALID,0.875,
2011-10-08, 02:34:04,VALID,1000.18,VALID,0,VALID,91.3876,VALID,0,VALID,23.0378,VALID,136,VALID,1.06367,
2011-10-08, 02:35:04,VALID,1000.17,VALID,0,VALID,91.4944,VALID,0,VALID,22.9988,VALID,136,VALID,0.994141,
2011-10-08, 02:36:04,VALID,1000.17,VALID,0,VALID,91.6012,VALID,0,VALID,22.9403,VALID,136,VALID,0.835938,
2011-10-08, 02:37:04,VALID,1000.17,VALID,0,VALID,91.7004,VALID,0,VALID,22.9013,VALID,136,VALID,0.890625,
2011-10-08, 02:38:04,VALID,1000.17,VALID,0,VALID,91.8072,VALID,0,VALID,22.8623,VALID,136,VALID,0.867188,
2011-10-08, 02:39:04,VALID,1000.16,VALID,0,VALID,91.914,VALID,0,VALID,22.8232,VALID,136,VALID,0.934766,
2011-10-08, 02:40:04,VALID,1000.18,VALID,0,VALID,92.1429,VALID,0,VALID,22.8232,VALID,64,VALID,1.0543,
2011-10-08, 02:41:04,VALID,1000.2,VALID,0,VALID,92.2497,VALID,0,VALID,22.8232,VALID,64,VALID,1.04219,
2011-10-08, 02:42:04,VALID,1000.22,VALID,0,VALID,92.3794,VALID,0,VALID,22.8232,VALID,64,VALID,0.891406,
2011-10-08, 02:43:04,VALID,1000.2,VALID,0,VALID,92.4481,VALID,0,VALID,22.8232,VALID,64,VALID,0.896875,
2011-10-08, 02:44:04,VALID,1000.2,VALID,0,VALID,92.5091,VALID,0,VALID,22.8427,VALID,64,VALID,0.786328,
2011-10-08, 02:45:04,VALID,1000.19,VALID,0,VALID,92.5473,VALID,0,VALID,22.8427,VALID,64,VALID,0.7,
2011-10-08, 02:46:04,VALID,1000.16,VALID,0,VALID,92.5778,VALID,0,VALID,22.8427,VALID,64,VALID,0.799219,
2011-10-08, 02:47:04,VALID,1000.2,VALID,0,VALID,92.4557,VALID,0,VALID,22.8037,VALID,64,VALID,0.533203,
2011-10-08, 02:48:04,VALID,1000.19,VALID,0,VALID,92.4405,VALID,0,VALID,22.7842,VALID,64,VALID,0.6,
2011-10-08, 02:49:04,VALID,1000.15,VALID,0,VALID,92.4405,VALID,0,VALID,22.7435,VALID,64,VALID,0.352734,
2011-10-08, 02:50:04,VALID,1000.15,VALID,0,VALID,92.4481,VALID,0,VALID,22.7452,VALID,64,VALID,0,
2011-10-08, 02:51:04,VALID,1000.14,VALID,0,VALID,92.4023,VALID,0,VALID,22.685,VALID,64,VALID,0,
2011-10-08, 02:52:04,VALID,1000.15,VALID,0,VALID,92.3947,VALID,0,VALID,22.6867,VALID,64,VALID,0.364844,
2011-10-08, 02:53:04,VALID,1000.12,VALID,0,VALID,92.4634,VALID,0,VALID,22.6867,VALID,64,VALID,0.658203,
2011-10-08, 02:54:04,VALID,1000.11,VALID,0,VALID,92.6312,VALID,0,VALID,22.7257,VALID,64,VALID,0.792188,
2011-10-08, 02:55:04,VALID,1000.11,VALID,0,VALID,92.7838,VALID,0,VALID,22.7842,VALID,64,VALID,0.791406,
2011-10-08, 02:56:04,VALID,1000.11,VALID,0,VALID,92.9059,VALID,0,VALID,22.8427,VALID,64,VALID,0.427344,
2011-10-08, 02:57:04,VALID,1000.07,VALID,0,VALID,92.9593,VALID,0,VALID,22.8818,VALID,141,VALID,0.919531,
2011-10-08, 02:58:04,VALID,1000.1,VALID,0,VALID,92.9669,VALID,0,VALID,22.9403,VALID,156,VALID,1.31016,
2011-10-08, 02:59:04,VALID,1000.08,VALID,0,VALID,92.9135,VALID,0,VALID,22.9793,VALID,156,VALID,1.39297,
2011-10-08, 03:00:04,VALID,1000.1,VALID,0,VALID,92.7991,VALID,0,VALID,22.9988,VALID,156,VALID,1.46094,
2011-10-08, 03:01:04,VALID,1000.07,VALID,0,VALID,92.6541,VALID,0,VALID,23.0183,VALID,156,VALID,1.16328,
2011-10-08, 03:02:04,VALID,1000.06,VALID,0,VALID,92.4328,VALID,0,VALID,23.0378,VALID,156,VALID,1.21563,
2011-10-08, 03:03:04,VALID,1000.04,VALID,0,VALID,92.2726,VALID,0,VALID,23.0378,VALID,156,VALID,1.21211,
2011-10-08, 03:04:04,VALID,1000,VALID,0,VALID,92.1124,VALID,0,VALID,23.0573,VALID,156,VALID,1.1418,
2011-10-08, 03:05:04,VALID,999.966,VALID,0,VALID,91.9827,VALID,0,VALID,23.0573,VALID,156,VALID,0.971094,
2011-10-08, 03:06:04,VALID,999.973,VALID,0,VALID,91.8835,VALID,0,VALID,23.0769,VALID,156,VALID,1.30469,
2011-10-08, 03:07:04,VALID,999.927,VALID,0,VALID,91.8301,VALID,0,VALID,23.0751,VALID,156,VALID,1.04297,
2011-10-08, 03:08:04,VALID,999.938,VALID,0,VALID,91.7233,VALID,0,VALID,23.0769,VALID,156,VALID,0.872266,
2011-10-08, 03:09:04,VALID,999.932,VALID,0,VALID,91.6317,VALID,0,VALID,23.0573,VALID,156,VALID,0.799219,
2011-10-08, 03:10:04,VALID,999.946,VALID,0,VALID,91.6241,VALID,0,VALID,23.0378,VALID,156,VALID,0.949219,
2011-10-08, 03:11:04,VALID,999.924,VALID,0,VALID,91.6699,VALID,0,VALID,23.0378,VALID,156,VALID,0.533594,
2011-10-08, 03:12:04,VALID,999.934,VALID,0,VALID,91.647,VALID,0,VALID,22.9988,VALID,156,VALID,0.541016,
2011-10-08, 03:13:04,VALID,999.937,VALID,0,VALID,91.6851,VALID,0,VALID,22.9988,VALID,156,VALID,0.516016,
2011-10-08, 03:14:04,VALID,999.944,VALID,0,VALID,91.7309,VALID,0,VALID,22.9581,VALID,156,VALID,0.389844,
2011-10-08, 03:15:04,VALID,999.975,VALID,0,VALID,91.8301,VALID,0,VALID,22.9385,VALID,156,VALID,0,
2011-10-08, 03:16:04,VALID,999.996,VALID,0,VALID,91.914,VALID,0,VALID,22.9403,VALID,156,VALID,0,
2011-10-08, 03:17:04,VALID,1000.01,VALID,0,VALID,91.853,VALID,0,VALID,22.88,VALID,156,VALID,0,
2011-10-08, 03:18:04,VALID,1000.04,VALID,0,VALID,91.853,VALID,0,VALID,22.841,VALID,156,VALID,0,
2011-10-08, 03:19:04,VALID,1000.05,VALID,0,VALID,92.0361,VALID,0,VALID,22.8427,VALID,156,VALID,0,
2011-10-08, 03:20:04,VALID,1000.05,VALID,0,VALID,92.0437,VALID,0,VALID,22.8037,VALID,156,VALID,0,
2011-10-08, 03:21:04,VALID,1000.05,VALID,0,VALID,92.1124,VALID,0,VALID,22.7435,VALID,156,VALID,0,
2011-10-08, 03:22:04,VALID,1000.07,VALID,0,VALID,92.1506,VALID,0,VALID,22.7045,VALID,156,VALID,0,
2011-10-08, 03:23:04,VALID,1000.08,VALID,0,VALID,92.2497,VALID,0,VALID,22.6867,VALID,156,VALID,0,
2011-10-08, 03:24:04,VALID,1000.1,VALID,0,VALID,92.3489,VALID,0,VALID,22.646,VALID,156,VALID,0,
2011-10-08, 03:25:04,VALID,1000.11,VALID,0,VALID,92.4176,VALID,0.104696,VALID,22.6264,VALID,156,VALID,0,
2011-10-08, 03:26:04,VALID,1000.12,VALID,0,VALID,92.5015,VALID,0.104696,VALID,22.6282,VALID,156,VALID,0,
2011-10-08, 03:27:04,VALID,1000.11,VALID,0,VALID,92.6312,VALID,0.104696,VALID,22.5874,VALID,156,VALID,0,
2011-10-08, 03:28:04,VALID,1000.13,VALID,0,VALID,92.6999,VALID,0,VALID,22.5679,VALID,156,VALID,0,
2011-10-08, 03:29:04,VALID,1000.14,VALID,0,VALID,92.7914,VALID,0,VALID,22.5679,VALID,156,VALID,0,
2011-10-08, 03:30:04,VALID,1000.09,VALID,0,VALID,92.9135,VALID,0,VALID,22.5874,VALID,156,VALID,0,
2011-10-08, 03:31:04,VALID,1000.13,VALID,0,VALID,93.0127,VALID,0.104696,VALID,22.5874,VALID,156,VALID,0,
2011-10-08, 03:32:04,VALID,1000.11,VALID,0,VALID,93.0585,VALID,0,VALID,22.5892,VALID,156,VALID,0,
2011-10-08, 03:33:04,VALID,1000.06,VALID,0,VALID,93.1271,VALID,0,VALID,22.6087,VALID,156,VALID,0,
2011-10-08, 03:34:04,VALID,1000.11,VALID,0,VALID,93.1805,VALID,0,VALID,22.5679,VALID,156,VALID,0,
2011-10-08, 03:35:04,VALID,1000.09,VALID,0,VALID,93.2263,VALID,0,VALID,22.5696,VALID,156,VALID,0,
2011-10-08, 03:36:04,VALID,1000.12,VALID,0,VALID,93.234,VALID,0,VALID,22.5306,VALID,156,VALID,0,
2011-10-08, 03:37:04,VALID,1000.09,VALID,0,VALID,93.234,VALID,0,VALID,22.4899,VALID,156,VALID,0,
2011-10-08, 03:38:04,VALID,1000.11,VALID,0,VALID,93.2568,VALID,0,VALID,22.4916,VALID,156,VALID,0,
2011-10-08, 03:39:04,VALID,1000.13,VALID,0,VALID,93.2797,VALID,0,VALID,22.4526,VALID,156,VALID,0,
2011-10-08, 03:40:04,VALID,1000.15,VALID,0,VALID,93.295,VALID,0,VALID,22.4119,VALID,156,VALID,0,
2011-10-08, 03:41:04,VALID,1000.15,VALID,0,VALID,93.356,VALID,0,VALID,22.4314,VALID,156,VALID,0,
2011-10-08, 03:42:04,VALID,1000.19,VALID,0,VALID,93.4171,VALID,0,VALID,22.4704,VALID,156,VALID,0,
2011-10-08, 03:43:04,VALID,1000.2,VALID,0,VALID,93.4628,VALID,0,VALID,22.4916,VALID,156,VALID,0,
2011-10-08, 03:44:04,VALID,1000.22,VALID,0,VALID,93.4934,VALID,0,VALID,22.4526,VALID,156,VALID,0,
2011-10-08, 03:45:04,VALID,1000.22,VALID,0,VALID,93.5086,VALID,0,VALID,22.4331,VALID,156,VALID,0,
2011-10-08, 03:46:04,VALID,1000.25,VALID,0,VALID,93.5544,VALID,0,VALID,22.3941,VALID,156,VALID,0,
2011-10-08, 03:47:04,VALID,1000.25,VALID,0,VALID,93.5697,VALID,0,VALID,22.3746,VALID,156,VALID,0,